Location: ???????????
(54.5822°N, 39.1075°E)
Time: 02:30:09
(UTC+00:00)

Nadezhda 1 Rocket - Pass Details

Date: 19 May 2025
Orbit: 941 x 1003 km, 83.0° (Epoch: 13 June)

Event Time Altitude Azimuth Distance (km) Brightness Sun altitude
Rises 18:04:48 0° 181° (S) 3,601 6.6 -4.6°
Reaches altitude 10° 18:07:16 10° 180° (S) 2,665 5.9 -4.9°
Maximum altitude 18:13:19 74° 97° (E) 997 4.0 -5.5°
Drops below altitude 10° 18:19:31 10° 14° (NNE) 2,718 6.9 -6.1°
Sets 18:22:03 0° 12° (NNE) 3,678 7.6 -6.3°
